Temp_Advection
nan nan nan nan nan nan nan nan nan nan nan nan nan nan nan nan nan nan nan nan nan nan nan nan nan nan nan nan nan nan nan nan nan
nan -0 -0 -0 -0 -0 -0 -0 -0 -0 -0 -0 -0 -0 -0 0 0 0 0 0 0 0 -0 -0 -0 0 0 0 0 0 -0 -0 nan
nan -0 0 -0 -0 -0 -0 -0 -0 -0 -0 -0 -0 -0 -0 -0 -0 0 0 0 0 -0 -0 0 -0 0 0 0 0 0 -0 -0 nan
nan -0 -0 -0 -0 -0 -0 -0 -0 -0 -0 -0 -0 -0 -0 -0 -0 -0 -0 -0 -0 0 0 0 -0 -0 -0 0 0 0 0 -0 nan
nan -0 -0 -0 -0 -0 -0 -0 -0 -0 -0 -0 -0 -0 -0 -0 -0 -0 -0 -0 -0 -0 -0 0 0 0 0 -0 0 0 0 0 nan
nan -0 -0 -0 -0 -0 -0 -0 -0 -0 -0 -0 -0 -0 -0 -0 -0 -0 0 0 0 0 -0 -0 -0 0 0 0 0 0 -0 -0 nan
nan -0 -0 -0 -0 -0 -0 -0 -0 -0 -0 -0 -0 -0 -0 -0 -0 -0 -0 0 0 0 0 -0 -1 -1 0 0 0 0 -0 -0 nan
nan -0 -0 -0 -0 -0 -0 -0 -0 -0 -0 -0 -0 -0 -0 -0 -0 -0 -0 0 0 0 1 0 -1 -1 -1 0 0 0 -0 -0 nan
nan 0 0 0 -0 -0 -0 -0 -0 -0 -0 -0 -0 -0 -0 -0 -0 -0 -0 -0 0 0 0 0 -0 -0 -0 -0 0 -0 -0 -0 nan
nan -0 -0 -0 -0 -0 -0 -0 -0 -0 -0 -0 -0 -0 -0 -0 -0 -0 -0 -0 -0 -0 0 0 -0 -0 -0 -1 0 -0 -0 2 nan
nan -0 -0 -0 -0 -0 -0 -0 -0 -0 -0 -0 -0 -0 -0 -0 -0 -0 -0 -0 -0 -0 0 0 0 -0 -1 -0 -0 -0 -0 0 nan
nan -0 -0 -0 -0 -0 -0 -0 -0 -0 -0 -0 -0 -0 -0 -0 0 -0 -0 -0 -0 -0 0 0 0 -0 -0 -0 0 -0 -0 0 nan
nan -0 -0 -0 -0 -0 -0 -0 -0 -0 -0 -0 -0 -0 -0 -0 -0 -0 -0 -0 -0 -0 -0 -0 -0 -0 -0 -0 -0 0 -0 -0 nan
nan 0 -0 -0 -0 -0 -0 -0 -0 -0 -0 -0 -0 -0 -0 -0 -0 -0 -0 -0 -0 -0 -0 -0 -0 -0 -0 0 0 0 0 0 nan
nan 0 -0 -0 -0 -0 -0 -0 -0 -0 -0 -0 -0 -0 -0 -0 -0 -0 -0 -0 -0 -0 -0 -0 0 0 0 0 0 0 0 -0 nan
nan 0 0 -0 -0 -0 -0 -0 -0 -0 -0 -0 0 -0 -0 -0 -0 -0 -0 -0 -0 -0 -0 -0 0 0 0 0 0 0 0 -0 nan
nan 0 0 0 -0 -0 -0 -0 -0 -0 -0 -0 -0 0 0 -0 0 -0 -0 -0 -0 -0 -0 -0 -0 0 0 0 0 0 0 0 nan
nan 0 0 0 -0 0 -0 -0 -0 -0 -0 -0 -0 -0 -0 -0 0 0 -0 -0 -0 0 0 0 -0 -0 0 0 0 0 0 0 nan
nan 0 0 0 0 -0 -0 -0 -0 -0 -0 -0 -0 -0 -0 -0 -0 0 0 -0 -0 -0 0 0 0 0 0 -0 -0 -0 0 0 nan
nan nan nan nan nan nan nan nan nan nan nan nan nan nan nan nan nan nan nan nan nan nan nan nan nan nan nan nan nan nan nan nan nan
Wind_Speed
13 13 13 13 14 13 13 13 13 14 14 16 17 18 17 16 15 15 15 14 15 16 15 15 14 15 15 16 16 14 11 11 10
14 13 13 13 13 13 13 12 12 13 13 14 15 16 17 17 17 17 17 17 16 16 17 18 18 17 17 17 18 18 15 14 14
12 12 12 12 12 13 13 14 14 13 12 13 13 15 16 17 17 17 18 19 19 19 20 19 20 20 20 20 19 20 19 18 17
11 11 12 13 14 14 15 15 15 15 15 15 14 15 15 16 17 17 17 17 19 21 21 22 21 21 23 23 23 22 22 22 21
12 12 13 14 15 16 16 16 17 17 17 17 17 17 17 17 17 17 17 17 17 17 20 23 24 24 24 26 26 26 24 25 25
13 14 15 16 17 17 17 18 18 18 18 18 19 19 18 17 17 17 17 17 17 17 17 19 23 25 26 25 25 26 28 28 28
13 15 16 17 17 18 18 18 18 18 18 18 18 17 17 17 17 16 16 17 17 16 15 16 20 24 25 27 24 28 11 35 30
13 14 14 15 16 16 17 17 17 17 18 18 18 16 16 16 14 14 14 15 16 15 12 13 17 20 21 25 25 26 28 28 28
14 15 16 17 17 17 17 17 17 18 18 19 18 16 15 14 12 11 11 12 13 12 11 13 16 16 14 14 20 18 14 10 26
15 16 17 17 18 18 18 18 19 19 18 17 17 16 14 12 10 9 9 9 10 11 10 8 16 16 16 16 19 9 13 32 9
16 16 17 17 18 18 18 19 20 20 20 18 17 15 13 10 8 7 6 5 7 9 7 8 12 15 14 16 12 11 12 8 10
16 17 17 17 17 17 18 18 19 20 18 18 16 13 10 7 5 5 5 5 5 6 7 8 12 14 13 15 11 9 14 9 23
16 16 16 17 17 18 18 19 17 18 17 15 11 9 8 5 3 4 5 5 5 5 6 7 11 12 10 13 11 9 7 3 20
14 15 15 16 16 17 17 17 19 17 15 11 7 7 7 6 5 4 4 4 4 5 7 7 8 5 4 8 6 4 4 9 6
12 13 14 15 15 15 15 15 16 16 14 7 4 5 6 6 6 5 5 4 4 3 3 2 1 2 4 6 6 4 4 5 4
12 11 12 13 13 14 14 14 14 14 12 6 2 1 4 3 3 4 4 3 3 3 2 2 2 2 3 5 5 2 1 4 1
12 11 11 11 11 12 13 13 13 13 13 10 2 2 1 1 0 0 1 2 3 3 2 2 1 1 2 1 1 2 5 4 2
11 11 10 10 10 10 11 11 11 12 11 10 6 3 2 4 4 3 3 4 5 6 5 3 1 1 0 1 1 3 5 6 6
11 11 10 10 10 10 11 11 11 10 10 9 7 5 5 3 2 4 5 8 8 8 8 8 6 3 2 1 2 1 1 3 3
9 9 9 9 10 10 11 11 10 10 10 9 7 6 6 3 3 4 5 7 6 6 4 3 8 7 5 4 2 1 3 3 3
Wind_Direction
323 322 320 320 317 314 312 309 306 302 298 292 288 285 283 278 276 274 276 275 269 267 262 257 258 259 258 245 245 236 244 250 242
324 325 326 326 325 323 322 318 314 310 305 301 295 292 288 282 276 272 270 269 272 269 269 264 256 256 257 253 244 244 240 246 250
325 327 328 328 327 326 324 321 318 316 312 307 302 298 293 290 284 277 271 268 267 267 268 270 265 259 254 254 249 248 246 246 244
329 329 328 326 324 322 319 317 316 315 313 309 305 300 297 294 290 286 281 274 269 266 265 269 270 266 257 252 250 250 253 252 244
328 327 326 324 321 318 316 315 314 313 312 309 305 301 298 295 292 289 288 285 280 274 269 266 269 268 269 259 247 246 250 252 245
325 327 327 327 325 323 320 316 312 310 309 308 307 305 302 298 292 289 286 284 282 279 275 274 268 268 266 270 257 245 251 248 243
327 329 331 331 330 327 323 319 317 315 313 311 308 305 301 297 293 289 284 280 279 280 283 284 278 270 269 269 275 246 277 237 237
324 327 329 328 327 326 325 325 324 322 318 314 310 308 302 298 293 287 282 277 276 276 283 291 288 291 286 276 285 276 291 231 227
325 327 327 327 327 330 330 331 331 328 324 317 312 309 305 301 296 292 289 288 288 292 287 287 291 296 300 290 282 290 253 27 217
322 324 326 326 326 328 331 333 334 332 328 322 313 310 307 304 298 293 289 292 300 293 289 274 287 284 282 284 279 271 316 259 282
318 319 322 324 325 327 331 333 336 334 333 328 322 316 313 307 301 292 293 309 295 288 281 260 264 286 277 278 272 217 261 277 234
316 317 319 322 324 326 330 332 335 333 334 329 326 323 322 315 300 288 292 305 289 269 259 263 271 271 271 271 252 221 229 284 253
314 313 315 320 323 327 331 332 335 337 339 338 337 348 353 349 331 314 303 292 279 272 272 277 279 278 265 251 245 251 249 303 240
312 309 313 319 323 326 330 335 336 343 349 346 352 11 21 21 13 2 349 323 302 286 281 284 288 290 305 235 237 230 236 217 226
312 309 312 318 324 328 331 336 339 345 354 353 2 25 37 42 48 50 42 32 31 28 13 49 83 175 138 98 126 126 197 229 262
315 312 311 318 325 329 333 339 343 348 0 9 311 41 63 59 53 51 41 30 35 37 23 41 93 117 132 206 215 212 238 283 270
321 319 312 315 325 331 334 339 345 351 0 9 1 223 248 353 170 55 345 357 7 348 335 1 9 150 135 151 142 132 121 118 131
325 324 318 315 323 328 331 336 342 351 358 4 11 338 297 313 241 244 282 306 309 307 311 307 278 274 248 146 143 159 167 148 156
332 328 321 315 317 322 325 329 336 341 350 356 355 351 327 326 313 262 278 311 307 301 285 260 255 247 254 293 285 303 197 178 161
335 331 327 320 315 316 321 325 327 332 337 342 342 341 339 341 331 314 318 321 324 342 341 270 222 225 233 245 239 230 248 288 286
Height
1546 1545 1544 1543 1543 1541 1540 1539 1538 1537 1537 1536 1536 1535 1536 1536 1536 1536 1536 1536 1536 1536 1536 1537 1537 1538 1539 1541 1540 1540 1541 1542 1542
1544 1543 1542 1541 1540 1540 1538 1537 1535 1535 1534 1533 1532 1532 1532 1532 1532 1532 1532 1532 1533 1534 1533 1534 1535 1536 1537 1537 1538 1539 1539 1540 1541
1542 1541 1541 1540 1539 1538 1537 1535 1534 1533 1531 1530 1529 1529 1528 1528 1528 1528 1528 1528 1529 1530 1530 1530 1531 1532 1533 1534 1535 1536 1537 1537 1539
1541 1540 1539 1538 1538 1536 1535 1533 1532 1531 1529 1528 1526 1525 1525 1524 1524 1524 1523 1524 1524 1525 1526 1526 1527 1528 1529 1530 1531 1532 1534 1534 1535
1540 1539 1537 1536 1535 1534 1532 1531 1529 1528 1526 1525 1523 1522 1521 1521 1520 1520 1519 1519 1520 1521 1521 1522 1522 1523 1523 1524 1526 1528 1529 1531 1531
1539 1538 1536 1534 1533 1531 1529 1528 1526 1525 1523 1522 1520 1518 1517 1516 1516 1515 1515 1515 1515 1516 1516 1516 1517 1517 1518 1518 1518 1522 1525 1525 1527
1538 1536 1534 1533 1531 1529 1527 1525 1524 1522 1520 1518 1516 1515 1513 1512 1511 1511 1510 1510 1511 1511 1511 1512 1512 1511 1512 1513 1513 1511 1510 1516 1521
1536 1534 1533 1531 1529 1527 1525 1523 1521 1519 1517 1515 1512 1511 1509 1508 1507 1507 1507 1507 1507 1508 1508 1508 1508 1508 1508 1508 1508 1509 1508 1497 1514
1534 1533 1531 1530 1528 1526 1523 1521 1519 1516 1514 1511 1509 1507 1505 1504 1503 1503 1503 1503 1504 1504 1504 1504 1505 1505 1505 1505 1504 1504 1505 1498 1506
1533 1531 1529 1528 1526 1524 1522 1519 1517 1514 1512 1508 1506 1504 1502 1501 1500 1500 1500 1500 1500 1501 1501 1502 1501 1502 1503 1503 1500 1499 1498 1497 1501
1531 1530 1528 1526 1524 1522 1519 1517 1514 1512 1509 1506 1503 1501 1499 1498 1497 1498 1498 1497 1498 1499 1498 1498 1499 1500 1500 1499 1496 1494 1494 1492 1497
1529 1527 1526 1524 1522 1520 1518 1515 1513 1510 1507 1504 1501 1499 1497 1496 1496 1496 1496 1496 1497 1497 1496 1495 1496 1497 1496 1496 1494 1491 1493 1491 1497
1527 1526 1524 1522 1520 1518 1516 1514 1512 1509 1506 1503 1500 1498 1496 1495 1495 1495 1495 1495 1496 1495 1494 1494 1494 1494 1493 1492 1490 1489 1490 1486 1492
1525 1524 1522 1520 1518 1516 1515 1513 1510 1508 1505 1502 1500 1498 1497 1496 1495 1494 1495 1495 1494 1494 1492 1491 1492 1493 1491 1490 1489 1486 1485 1489 1493
1522 1521 1520 1518 1516 1515 1513 1512 1510 1507 1504 1501 1500 1499 1497 1497 1495 1495 1495 1495 1494 1493 1491 1491 1491 1492 1491 1490 1488 1485 1489 1490 1490
1520 1518 1517 1516 1514 1513 1512 1510 1509 1506 1504 1502 1500 1499 1498 1497 1496 1496 1496 1495 1494 1493 1492 1492 1491 1491 1491 1491 1488 1485 1486 1486 1483
1517 1515 1515 1514 1512 1511 1510 1509 1508 1505 1503 1501 1500 1500 1500 1498 1496 1496 1496 1495 1494 1493 1492 1492 1491 1490 1490 1491 1490 1490 1491 1490 1487
1515 1512 1512 1511 1510 1509 1509 1508 1507 1505 1503 1501 1501 1500 1499 1497 1497 1496 1495 1494 1494 1492 1491 1491 1491 1489 1489 1489 1489 1489 1488 1486 1492
1513 1511 1510 1509 1508 1508 1507 1507 1506 1504 1503 1502 1500 1500 1499 1497 1497 1496 1494 1493 1492 1490 1489 1489 1489 1489 1489 1487 1488 1486 1485 1488 1491
1511 1509 1508 1508 1507 1507 1506 1505 1504 1504 1503 1501 1500 1499 1498 1497 1496 1495 1494 1492 1490 1488 1487 1485 1486 1487 1489 1490 1490 1489 1490 1490 1489